Flag for South Korea Weather past 2 weeks in Daegu, South Korea

Now
66 °F

Light rain. Fog.


Feels Like: 66 °F
Forecast: 65 / 76 °F
Wind: 1 mph from Northwest

Location: Taegu Ab

Current Time: Jul 7, 2015 at 6:56:03 PM

Latest Report: Jul 7, 2015 at 6:00 PM


Visibility: 3 mi

Pressure: 29.80 "Hg

Humidity: 88%

Dew point: 63 °F

Location of DaeguLocation

Historic Weather in Daegu — Graph

°F

Daegu temperature yesterday

Maximum temperature yesterday: 81 °F (at 1:00 PM)
Minimum temperature yesterday: 68 °F (at 1:00 AM)
Average temperature yesterday: 73 °F

Past Weeks' High & Low Weather Summary

 TemperatureHumidityPressure
High90 °F (Jun 29, 4:00 PM)100% (Jul 1, 12:00 AM)29.89 "Hg (Jul 1, 12:00 AM)
Low61 °F (Jul 2, 5:00 AM)32% (Jul 2, 1:00 PM)29.30 "Hg (Jun 26, 5:00 AM)
Average72 °F70%29.68 "Hg
* Reported Jun 22 5:00 PM — Jul 7 5:00 PM, Daegu, Weather by CustomWeather, © 2015

Note: Actual official high and low records may vary slightly from our data, if they occured in-between our weather recording intervals... More about our weather records

Advertising

Daegu weather history for previous 24 hours

 ConditionsComfort  
Time TempWeatherWind HumidityBarometerVisibility
5:00 PM
Tue, Jul 7
64 °FLight rain. Fog.3 mph94%29.83 "Hg3 mi
4:00 PM64 °FLight rain. Fog.2 mph88%29.83 "Hg3 mi
3:00 PM64 °FLight rain. Fog.2 mph88%29.83 "Hg3 mi
2:00 PM66 °FLight rain. Fog.5 mph83%29.86 "Hg3 mi
1:00 PM68 °FLight rain. Mostly cloudy.2 mph83%29.86 "Hg6 mi
12:00 PM68 °FLight rain. More clouds than sun.9 mph83%29.89 "Hg6 mi
11:00 AM70 °FLight rain. More clouds than sun.7 mph73%29.89 "HgN/A
10:00 AM70 °FSunny.3 mph73%29.86 "Hg10 mi
9:00 AM68 °FSunny.5 mph78%29.86 "Hg10 mi
8:00 AM66 °FSunny.5 mph83%29.86 "Hg10 mi
7:00 AM66 °FSunny.6 mph83%29.83 "Hg10 mi
6:00 AM66 °FSunny.6 mph83%29.83 "Hg10 mi
5:00 AM66 °FClear.7 mph83%29.83 "Hg10 mi
4:00 AM66 °FClear.3 mph78%29.83 "Hg10 mi
3:00 AM66 °FClear.3 mph78%29.86 "Hg10 mi
2:00 AM68 °FClear.5 mph73%29.86 "Hg10 mi
1:00 AM68 °FClear.7 mph73%29.86 "Hg10 mi
12:00 AM68 °FClear.8 mph73%29.86 "Hg10 mi
11:00 PM
Mon, Jul 6
70 °FClear.3 mph69%29.86 "Hg10 mi
10:00 PM70 °FClear.10 mph69%29.86 "Hg10 mi
9:00 PM72 °FPassing clouds.8 mph57%29.86 "HgN/A
8:00 PM72 °FPassing clouds.7 mph65%29.86 "HgN/A
7:00 PM73 °FPartly sunny.8 mph61%29.83 "HgN/A
6:00 PM75 °FPartly sunny.13 mph57%29.83 "HgN/A
Weather by CustomWeather, © 2015

See weather overviewHow to use our weather pages